Regional Weather Roundup
Issued by NWS Northern Indiana

Home | Current Version | Previous Version | Text Only | Print | Product List | Glossary Off
Versions: 1 2 3 4 5 6 7 8 9 10 11 12 13 14 15 16 17 18 19 20 21 22 23 24 25 26 27 28 29 30 31 32 33 34 35 36 37 38 39 40 41 42 43 44 45 46 47 48 49 50

583
ASUS43 KIWX 191000
RWRIWX

KIWX WEATHER ROUNDUP
NATIONAL WEATHER SERVICE NORTHERN INDIANA
500 AM EST THU JAN 19 2017

NOTE: "FAIR" INDICATES FEW OR NO CLOUDS BELOW 12,000 FEET WITH NO
SIGNIFICANT WEATHER AND/OR OBSTRUCTIONS TO VISIBILITY.

* THESE STATIONS ARE NOT UNDER NWS QUALITY CONTROL. THEY ALSO MAY NOT
  REPORT WEATHER SUCH AS PRECIPITATION OR FOG.

INZ001>027-191100-
NORTHERN INDIANA

CITY           SKY/WX    TMP DP  RH WIND       PRES   REMARKS
SOUTH BEND     CLOUDY    34  33  96 S8        30.07F WCI  27
GOSHEN         CLOUDY    34  30  85 SW5       30.07F WCI  30
FORT WAYNE     CLOUDY    35  32  88 SW9       30.10F WCI  28

$$
INZ028>050-191100-
CENTRAL INDIANA

CITY           SKY/WX    TMP DP  RH WIND       PRES   REMARKS
LAFAYETTE      CLOUDY    33  32  96 E3        30.08F FOG
KOKOMO*        CLOUDY    35  34  96 S6        30.09F WCI  30
MUNCIE*        CLOUDY    37  34  89 SW5       30.09F
INDIANAPOLIS   CLOUDY    36  33  89 E5        30.07F

$$
MIZ043>046-050>051-056>058-064>065-071>073-077>080-191100-
SOUTHWEST LOWER MICHIGAN

CITY           SKY/WX    TMP DP  RH WIND       PRES   REMARKS
BATTLE CREEK   CLOUDY    34  32  92 SW9       30.06R WCI  27
BENTON HARBOR  CLOUDY    37  33  85 S6        30.05F
COLDWATER*     CLOUDY    33  33  99 SW8       30.07S WCI  26
HILLSDALE*     CLOUDY    32  32 100 W9        30.05S FOG     WCI  24
HOLLAND        CLOUDY    37  34  89 SW10      30.04S
GRAND RAPIDS   CLOUDY    35  32  88 SW12      30.03F FOG     WCI  27
KALAMAZOO      CLOUDY    34  30  85 SW8       30.06F WCI  27
STURGIS*       CLOUDY    33  32  96 W8        30.06R WCI  26
THREE RIVERS*  CLOUDY    34  32  92 SW3       30.07S

$$
OHZ001>008-015>018-024>025-191100-
NORTHWEST OHIO

CITY           SKY/WX    TMP DP  RH WIND       PRES   REMARKS
DEFIANCE       CLOUDY    34  32  92 SW8       30.09F WCI  27
FINDLAY        CLOUDY    37  33  85 SW10      30.09R
TOLEDO EXPRESS CLOUDY    34  33  96 W15       30.08S WCI  24
TOLEDO METCALF CLOUDY    36  34  92 SW12      30.09S
LIMA           CLOUDY    36  35  96 SW9       30.09S

$$
AND FOR LAKE MICHIGAN COASTAL AND OPEN LAKE BUOY OBSERVATIONS

STATION/POSITION TEMP    WIND        PRES    VSBY  WAVE
                 AIR SEA DIR/SP/G                  HT/PER
                 (F)     (DEG/KT/KT) (MB)    (MI)  (FT/S)
CALUMET HARBOR    33     190/  5/  8 1017.0F
BURNS HARBOR      35     180/ 11/ 13 1017.9F

$$
&&




USA.gov is the U.S. government's official web portal to all federal, state and local government web resources and services.